#timestamp,LO_Frequency,Hit,StdDev 
1513479615.7,286046997.4,N
1513479635.5,286046994.9,N
1513479655.4,286046997.2,N
1513479675.2,286046996.6,N
1513479695.1,286046997.0,N
1513479696.0,286046997.0,N
1513479715.8,286046996.6,N
1513479735.6,286046997.0,N
1513479755.5,286046996.8,N
1513479775.3,286046997.1,N
1513479795.1,286046996.7,N
1513479815.9,286046998.0,N
1513479835.7,286046997.4,N
1513479855.6,286046997.2,N
1513479875.4,286046996.7,N
1513479895.2,286046997.2,N
1513479915.1,286046996.8,Y
1513479916.0,286046996.8,P
1513479935.8,286047000.4,N
1513479955.7,286047001.5,N
1513479975.5,286047001.9,N
1513479995.3,286047002.2,N
1513480015.2,286046999.8,N
1513480035.0,286047000.1,N
1513480035.9,286047000.1,N
1513480055.8,286047002.7,N
1513480075.6,286047004.1,N
1513480095.4,286047004.2,N
1513480115.3,286047004.0,N
1513480135.1,286047003.7,N
1513480155.9,286047001.8,N
1513480175.7,286047000.2,N
1513480195.5,286046999.8,N
1513480215.4,286047000.2,N
1513480235.2,286047000.5,N
1513480255.0,286047002.2,N
1513480255.9,286047002.2,N
1513480275.8,286047002.6,N
1513480295.6,286047002.0,N
1513480315.5,286047003.7,N
1513480335.3,286047003.9,N
1513480355.1,286047001.8,N
1513480375.9,286046999.8,N
1513480395.7,286047000.2,N
1513480415.5,286046998.6,N
1513480435.4,286046998.5,N
1513480455.2,286047000.8,N
1513480475.1,286046998.1,N
1513480476.0,286046998.1,N
1513480495.8,286047001.1,N
1513480515.6,286046999.8,N
1513480535.5,286047000.6,N
1513480555.3,286046999.8,N
1513480575.1,286047002.3,N
1513480595.9,286047004.4,N
1513480615.7,286047004.0,N
1513480635.6,286047003.5,N
1513480655.4,286047001.5,N
1513480675.2,286047004.0,N
1513480695.1,286047001.6,N
1513480696.0,286047001.6,N
1513480715.8,286047004.1,N
1513480735.7,286047003.2,N
1513480755.5,286047003.5,N
1513480775.3,286047001.8,N
1513480795.2,286047004.1,N
1513480815.0,286047004.0,N
1513480815.9,286047004.0,N
1513480835.7,286047003.7,N
1513480855.6,286047002.3,N
1513480875.4,286047002.0,N
1513480895.3,286047001.6,N
1513480915.1,286047004.4,N
1513480916.0,286047004.4,N
1513480935.8,286047004.0,N
1513480955.7,286047001.7,N
1513480975.5,286047003.8,N
1513480995.4,286047001.4,N
1513481015.2,286047001.3,N
1513481035.0,286047002.0,N
1513481035.9,286047002.0,N
1513481055.8,286047002.1,N
1513481075.6,286047002.4,N
1513481095.5,286047002.1,N
1513481115.3,286046999.8,N
1513481135.1,286047001.8,N
1513481155.9,286047004.3,Y
1513481175.7,286047000.9,P
1513481195.5,286047000.8,N
1513481215.4,286046998.9,N
1513481235.2,286046998.1,N
1513481255.1,286046999.0,N
1513481256.0,286046999.0,N
1513481275.8,286047001.1,N
1513481295.6,286047000.4,N
1513481315.5,286046999.9,N
1513481335.3,286047002.4,N
1513481355.1,286046999.9,N
1513481375.9,286047000.4,N
1513481395.7,286046999.8,N
1513481415.6,286047001.5,N
1513481435.4,286047000.1,N
1513481485.3,286047002.7,E
1513481495.2,286047000.5,N
1513481515.0,286046998.9,P
1513481515.9,286046998.9,N
1513481535.8,286046999.4,N
1513481555.6,286046996.6,Y
1513481575.4,286046998.7,P
1513481595.3,286046998.3,P
1513481615.1,286046999.0,N
1513481635.9,286046999.3,N
1513481655.7,286046997.2,Y
1513481675.5,286046998.3,P
1513481695.4,286046998.4,P
1513481715.2,286046998.3,P
1513481735.0,286046998.2,Y
1513481736.0,286046998.2,P
1513481755.8,286046999.7,N
1513481775.6,286046999.7,N
1513481795.5,286047002.8,Y
1513481815.3,286047002.3,P
1513481835.1,286047001.8,N
1513481855.9,286047003.1,N
1513481875.7,286047002.5,N
1513481895.6,286047002.6,N
1513481915.4,286047001.6,N
1513481935.2,286046999.7,N
1513481955.1,286047002.8,N
1513481956.0,286047002.8,N
1513481975.8,286047001.9,N
1513481995.6,286047001.6,N
1513482015.5,286047002.2,N
1513482035.3,286047000.1,N
1513482055.2,286047001.0,N
1513482075.9,286046999.7,N
1513482095.7,286046999.7,N
1513482115.6,286047002.5,N
1513482135.4,286047002.6,N
1513482155.2,286047001.5,N
1513482175.1,286047001.4,N
1513482176.0,286047001.4,N
1513482195.8,286047004.2,Y
1513482215.7,286047000.2,P
1513482235.5,286047000.9,N
1513482255.3,286047000.6,N
1513482275.2,286047002.6,Y
1513482295.0,286047000.0,P
1513482295.9,286047000.0,N
1513482315.8,286047002.7,P
1513482335.6,286047000.0,N
1513482355.4,286047000.7,N
1513482375.3,286046998.2,N
1513482395.1,286046998.7,N
1513482415.8,286047001.2,N
1513482435.7,286047000.6,N
1513482455.5,286047001.9,N
1513482475.4,286046999.7,N
1513482495.2,286046999.9,N
1513482515.0,286047000.5,N
1513482515.9,286047000.5,N
1513482535.8,286047000.2,N
1513482555.6,286046999.7,N
1513482575.4,286047002.4,N
1513482595.3,286047001.9,N
1513482615.1,286047001.5,N
1513482635.9,286047002.6,N
1513482655.7,286047002.7,N
1513482675.5,286047001.6,N
1513482695.4,286047002.4,N
1513482715.2,286047000.1,N
1513482735.1,286047000.4,N
1513482736.0,286047000.4,N
1513482755.8,286047002.3,N
1513482775.7,286046999.9,N
1513482795.5,286047002.5,N
1513482815.3,286047002.1,N
1513482835.2,286047002.8,N
1513482855.0,286047000.1,N
1513482855.9,286047000.1,N
1513482875.0,286047000.4,N
1513482875.9,286047000.4,N
1513482895.8,286046999.7,N
1513482915.6,286046999.8,N
1513482935.5,286046999.7,N
1513482955.3,286047000.2,N
1513482975.1,286047000.2,N
1513482995.9,286047001.2,N
1513483015.7,286047000.0,N
1513483035.6,286047000.9,N
1513483055.4,286047000.3,N
1513483075.2,286047002.3,N
1513483095.1,286047002.5,N
1513483096.0,286047002.5,N
1513483115.8,286047001.9,N
1513483135.6,286047001.9,N
1513483155.5,286047004.0,Y
1513483175.3,286046999.7,P
1513483195.2,286047002.2,P
